TV
NORAD ID: 27811
Int'l Code: 2003-020A
Perigee: 35,775.2 km
Apogee: 35,812.8 km
Inclination: 0.0 °
Period: 1,436.1 minutes
Semi major axis: 42165 km
Launch date: May 13, 2003
Source: Greece (GREC)
Comments: 30 Ku-band; television broadcasting services for the 2004 Summer Olympic Games in Athens.
Two Line Element Set (TLE):
1 27811U 03020A 13165.64581269 .00000155 00000-0 00000+0 0 6493
2 27811 000.0222 075.7895 0004462 013.8130 084.9564 01.00270762 36853
Source: AFSPC
NASA's NSSDC Master Catalog entry for HELLAS-SAT 2